Location: ????????
(60.5616°N, 46.8254°E)
Time: 17:04:37
(UTC+00:00)

PSLV R/B - Pass Details

Date: 18 February 2020
Orbit: 568 x 598 km, 98.2° (Epoch: 31 March)

Event Time Altitude Azimuth Distance (km) Brightness Sun altitude
Rises 14:38:41 0° 17° (NNE) 2,836 7.2 -6.8°
Reaches altitude 10° 14:40:51 10° 18° (NNE) 1,935 6.3 -7.0°
Maximum altitude 14:45:04 84° 107° (ESE) 606 4.0 -7.5°
Drops below altitude 10° 14:49:16 10° 197° (SSW) 1,935 7.0 -8.0°
Sets 14:51:26 0° 198° (SSW) 2,836 7.8 -8.3°
